Date String (YYYY-MM-DD hh:mm:ss) UTC,Instrument flags,Ambient pressure (hPa),Sample flow (lpm),Bypass flow (lpm),Sample temperature (°C),Ambient temperature (°C),ASC tube jacket temperature (°C),LED temperature (°C),Box temperature (°C),Sample RH (%),Span deviation,Mass concentration (μg/m³),Mass concentration (μg/m³),Mass concentration (μg/m³)
DateTimeUTC,F1_M11,P_M11,Q1_M11,Q2_M11,T1_M11,T2_M11,T3_M11,T4_M11,T5_M11,U1_M11,ZSPAN_M11,X0_M11,X2_M11,X1_M11
2021-09-17 18:00:00,,0835.2,4.99,0.00,30.3,29.6,00.0,39.3,32.0,17.7,0000.9,0019.05,0006.44,0005.27
2021-09-17 18:01:00,,0835.2,5.01,0.00,30.3,29.7,00.0,39.3,32.1,17.6,0000.7,0019.05,0006.50,0005.30
2021-09-17 18:02:00,,0835.2,5.00,0.00,30.3,29.7,00.0,39.4,32.1,17.5,0001.3,0019.82,0006.56,0005.33
2021-09-17 18:03:00,,0835.2,5.00,0.00,30.4,29.7,00.0,39.4,32.1,17.5,0001.1,0019.80,0006.67,0005.35
2021-09-17 18:04:00,,0835.2,5.00,0.00,30.4,29.7,00.0,39.4,32.1,17.6,0000.8,0021.21,0006.70,0005.37
2021-09-17 18:05:00,,0835.2,5.00,0.00,30.4,29.8,00.0,39.4,32.1,17.6,0000.8,0020.41,0006.69,0005.36
2021-09-17 18:06:00,,0835.1,4.99,0.00,30.4,29.8,00.0,39.4,32.2,17.5,0001.3,0019.20,0006.65,0005.36
2021-09-17 18:07:00,,0835.1,5.01,0.00,30.4,29.8,00.0,39.4,32.2,17.5,0001.8,0019.54,0006.70,0005.37
2021-09-17 18:08:00,,0835.1,5.00,0.00,30.4,29.8,00.0,39.4,32.2,17.5,0001.6,0019.18,0006.74,0005.40
2021-09-17 18:09:00,,0835.1,4.99,0.00,30.4,29.7,00.0,39.5,32.1,17.3,0001.0,0019.45,0006.82,0005.42
2021-09-17 18:10:00,,0835.1,5.00,0.00,30.4,29.7,00.0,39.5,32.1,17.4,0000.8,0019.57,0006.90,0005.47
2021-09-17 18:11:00,,0835.1,5.00,0.00,30.4,29.7,00.0,39.5,32.1,17.4,0001.5,0019.84,0006.95,0005.52
2021-09-17 18:12:00,,0835.1,5.00,0.00,30.4,29.7,00.0,39.5,32.1,17.4,0001.2,0019.84,0006.95,0005.55
2021-09-17 18:13:00,,0835.0,5.00,0.00,30.4,29.7,00.0,39.5,32.1,17.5,0000.9,0018.86,0006.99,0005.58
2021-09-17 18:14:00,,0835.0,5.01,0.00,30.4,29.7,00.0,39.5,32.1,17.5,0000.5,0018.64,0007.03,0005.60
2021-09-17 18:15:00,,0835.0,5.00,0.00,30.4,29.8,00.0,39.5,32.2,17.4,0000.4,0016.75,0007.06,0005.61
2021-09-17 18:16:00,,0835.0,5.00,0.00,30.5,29.8,00.0,39.5,32.2,17.5,0000.8,0016.54,0007.14,0005.64
2021-09-17 18:17:00,,0835.0,4.99,0.00,30.5,28.8,00.0,39.5,32.0,17.6,0000.5,0016.70,0007.25,0005.68
2021-09-17 18:18:00,,0835.0,5.00,0.00,30.3,27.0,00.0,39.5,31.5,17.6,0000.5,0016.20,0007.24,0005.71
2021-09-17 18:19:00,,0835.0,5.00,0.00,30.2,26.7,00.0,39.4,31.4,17.8,0000.7,0016.12,0007.30,0005.74
2021-09-17 18:20:00,,0834.9,5.01,0.00,30.1,27.0,00.0,39.4,31.5,18.0,0001.5,0015.81,0007.29,0005.74
2021-09-17 18:21:00,,0834.9,5.00,0.00,30.1,27.5,00.0,39.3,31.5,18.0,0001.4,0014.80,0007.25,0005.73
2021-09-17 18:22:00,,0834.9,5.00,0.00,30.0,27.8,00.0,39.3,31.6,18.2,0001.4,0014.28,0007.19,0005.69
2021-09-17 18:23:00,,0834.8,5.00,0.00,30.0,28.1,00.0,39.3,31.6,18.1,0001.4,0014.99,0007.21,0005.69
2021-09-17 18:24:00,,0834.7,5.00,0.00,30.0,28.4,00.0,39.3,31.7,18.2,0001.1,0015.69,0007.16,0005.69
2021-09-17 18:25:00,,0834.8,4.99,0.00,30.0,28.6,00.0,39.2,31.7,18.2,0001.3,0016.28,0007.06,0005.68
2021-09-17 18:26:00,,0834.8,5.00,0.00,30.0,28.7,00.0,39.2,31.7,18.1,0001.9,0017.76,0007.05,0005.67
2021-09-17 18:27:00,,0834.9,4.99,0.00,30.0,28.8,00.0,39.2,31.7,18.2,0002.0,0019.33,0007.04,0005.67
2021-09-17 18:28:00,,0834.9,5.01,0.00,30.0,28.9,00.0,39.2,31.7,18.1,0002.0,0019.52,0007.02,0005.68
2021-09-17 18:29:00,,0834.8,5.00,0.00,30.0,29.0,00.0,39.2,31.7,18.1,0001.9,0019.72,0007.02,0005.68
2021-09-17 18:30:00,,0834.7,4.99,0.00,30.0,29.0,00.0,39.2,31.8,18.1,0001.9,0020.82,0006.96,0005.69
2021-09-17 18:31:00,,0834.6,5.00,0.00,30.1,29.1,00.0,39.2,31.8,18.0,0002.4,0021.51,0006.94,0005.71
2021-09-17 18:32:00,,0834.7,4.99,0.00,30.1,29.2,00.0,39.2,31.8,18.0,0002.7,0021.68,0006.95,0005.74
2021-09-17 18:33:00,,0834.7,5.01,0.00,30.1,29.2,00.0,39.2,31.9,18.0,0002.4,0021.48,0006.97,0005.76
2021-09-17 18:34:00,,0834.7,4.99,0.00,30.1,29.2,00.0,39.2,31.9,18.1,0002.5,0021.38,0006.96,0005.75
2021-09-17 18:35:00,,0834.7,5.00,0.00,30.1,29.3,00.0,39.2,31.9,18.1,0003.0,0020.54,0006.97,0005.75
2021-09-17 18:36:00,,0834.7,5.01,0.00,30.1,29.3,00.0,39.2,31.9,18.2,0002.9,0020.66,0007.04,0005.77
2021-09-17 18:37:00,,0834.7,4.99,0.00,30.1,29.3,00.0,39.2,31.9,18.0,0002.5,0019.07,0007.08,0005.79
2021-09-17 18:38:00,,0834.7,5.00,0.00,30.2,29.3,00.0,39.2,31.9,18.1,0002.6,0017.47,0007.12,0005.79
2021-09-17 18:39:00,,0834.7,5.01,0.00,30.2,29.3,00.0,39.3,31.9,18.1,0003.1,0017.59,0007.13,0005.78
2021-09-17 18:40:00,,0834.7,5.00,0.00,30.1,29.3,00.0,39.3,31.9,18.0,0003.2,0017.58,0007.13,0005.79
2021-09-17 18:41:00,,0834.7,5.00,0.00,30.1,29.3,00.0,39.3,31.9,18.2,0003.2,0017.36,0007.18,0005.79
2021-09-17 18:42:00,,0834.6,5.00,0.00,30.1,29.3,00.0,39.3,31.9,18.2,0002.6,0017.49,0007.23,0005.79
2021-09-17 18:43:00,,0834.6,4.99,0.00,30.1,29.3,00.0,39.3,31.9,18.2,0001.7,0018.23,0007.28,0005.80
2021-09-17 18:44:00,,0834.6,5.01,0.00,30.1,29.3,00.0,39.3,31.9,18.3,0001.4,0018.56,0007.31,0005.82
2021-09-17 18:45:00,,0834.6,5.01,0.00,30.1,29.3,00.0,39.3,31.9,18.2,0000.0,0018.50,0007.35,0005.83
2021-09-17 18:46:00,,0834.5,4.99,0.00,30.1,29.4,00.0,39.3,31.8,18.1,0000.4,0019.49,0007.41,0005.87
2021-09-17 18:47:00,,0834.6,5.01,0.00,30.1,29.4,00.0,39.3,31.9,18.2,-000.0,0019.66,0007.42,0005.89
2021-09-17 18:48:00,,0834.6,5.00,0.00,30.2,29.4,00.0,39.3,31.9,18.3,0000.0,0019.53,0007.41,0005.89
2021-09-17 18:49:00,,0834.5,4.99,0.00,30.2,29.4,00.0,39.3,31.9,18.2,-000.1,0019.35,0007.44,0005.91
2021-09-17 18:50:00,,0834.5,5.01,0.00,30.2,28.4,00.0,39.3,31.7,18.3,-000.4,0019.28,0007.47,0005.96
2021-09-17 18:51:00,,0834.5,5.00,0.00,30.0,26.3,00.0,39.2,31.0,18.5,-000.8,0019.98,0007.50,0005.99
2021-09-17 18:52:00,,0834.5,5.00,0.00,29.8,26.0,00.0,39.1,30.9,18.5,-000.8,0020.06,0007.54,0006.01
2021-09-17 18:53:00,,0834.5,5.01,0.00,29.8,26.4,00.0,39.1,31.1,18.5,-000.3,0019.28,0007.57,0006.04
2021-09-17 18:54:00,,0834.4,5.00,0.00,29.7,26.8,00.0,39.0,31.2,18.6,0000.3,0018.71,0007.59,0006.06
2021-09-17 18:55:00,,0834.4,5.00,0.00,29.7,27.3,00.0,39.0,31.2,18.7,0000.3,0019.02,0007.63,0006.07
2021-09-17 18:56:00,,0834.4,5.01,0.00,29.7,27.6,00.0,39.0,31.3,18.6,0001.0,0018.69,0007.67,0006.10
2021-09-17 18:57:00,,0834.4,5.01,0.00,29.7,27.9,00.0,38.9,31.4,18.7,0001.4,0018.35,0007.65,0006.12
2021-09-17 18:58:00,,0834.4,4.99,0.00,29.7,28.2,00.0,38.9,31.4,18.7,0001.7,0019.19,0007.64,0006.13
2021-09-17 18:59:00,,0834.4,5.00,0.00,29.8,28.4,00.0,38.9,31.5,18.6,0001.7,0020.21,0007.70,0006.17
